Location: ?????
(55.8833°N, 37.6500°E)
Time: 20:12:48
(UTC+00:00)

CZ-4 R/B - Pass Details

Date: 27 February 2020
Orbit: 531 x 599 km, 97.8° (Epoch: 07 April)

Event Time Altitude Azimuth Distance (km) Brightness Sun altitude
Rises 16:06:02 0° 180° (S) 2,823 5.0 -10.3°
Reaches altitude 10° 16:08:16 10° 187° (S) 1,919 4.2 -10.6°
Maximum altitude 16:12:17 45° 261° (W) 801 2.7 -11.1°
Drops below altitude 10° 16:16:15 10° 335° (NNW) 1,899 4.4 -11.7°
Sets 16:18:28 0° 342° (NNW) 2,791 5.2 -12.0°
